Weather in Kushnitsa

Ukraine / Zakarpattia District     48°26′03″N   23°15′06″E
temp.,
°C
wind,
m/s
gust,
m/s
humid.,
%
clouds,
%
prec.,
mm/h
press.,
hPa
HPBL,
m
25 february, thu
thu2523:00+2ene11920 0.0 103622
02:00+2ene11912 0.0 103622
05:00+2e11920 0.0 103522
08:00+2se11910 0.0 103522
11:00+8s12780 0.0 1034251
14:00+10s12732 0.0 1033358
17:00+7ssw11850 0.0 103222
20:00+4e11890 0.0 103222
26 february, fri
fri2623:00+3ese12870 0.0 103222
02:00+3ese11870 0.0 103122
05:00+3ese11870 0.0 103022
08:00+3e11880 0.0 103022
11:00+9ssw12730 0.0 1028297
14:00+11sw12690 0.0 1027583
17:00+8sw12830 0.0 102532
20:00+4ene11920 0.0 102522
27 february, sat
sat2723:00+4ene119341 0.0 102522
02:00+4n239470 0.1 102698
05:00+2n3883100 0.4 1025752
08:00+2n388066 0.4 1026947
11:00+3nnw377498 0.0 10261200
14:00+3nnw367195 0.1 10271179
17:00+2n487383 0.0 10271160
20:00−1n259041 0.1 1029151
28 february, sun
sun2823:000nnw259239 0.1 1030380
02:000nnw158965 0.2 1031565
05:00−1n378470 0.1 1031421
08:00−1n357778 0.1 1032750
11:00+1n356587 0.0 1032713
14:00+3n355594 0.0 1032954
17:00+2n3570100 0.0 1031854
20:00−2nne348656 0.0 103394
1 march, mon
mon123:00−2nne34870 0.0 103495
02:00−2nne23870 0.0 103581
05:00−2nne23852 0.0 103481
08:00−2nne23811 0.0 1034119
11:00+2n1284100 0.1 1034335
14:00+4n246897 0.3 1034919
17:00+3n237687 0.1 1034257
20:00−1nne228950 0.1 103631